User: anonymous
Location: Niverville
(49.6028°N, 97.0419°W)
Time: 03:01:54
(UTC-05:00)
Language:

BREEZE-M DEB (TANK) - Orbit

View from above orbital plane
View from above orbital plane
View from above satellite
View from above satellite

Ground track
Ground track

The orbit data is extracted from the following two-line orbital elements,

1 33374U 08044B   14241.09704637  .00003684  00000-0  12550-2 0  7134
2 33374 049.4435 280.1540 5449298 192.0321 146.4447 04.84354450104271
Epoch (UTC): 29 August 2014 02:19:44
Eccentricity: 0.5449298
inclination: 49.4435°
perigee height: 337 km
apogee height: 16418 km
right ascension of ascending node: 280.1540°
argument of perigee: 192.0321°
revolutions per day: 4.84354450
mean anomaly at epoch: 146.4447°
orbit number at epoch: 10427

The dashed part of the orbit path shows where the satellite is in the earth's shadow,  

DLR